Station NAXR1 - Potters Cove, Narragansett Bay Reserve, RI Image indicating link to RSS feed of recent meteorological observations for station NAXR1


Conditions at NAXR1 as of
(12:45 pm EDT)
1645 GMT on 04/14/2024:
     

Click on the graph icon in the table below to see a time series plot of the last five days of that observation.

5-day plot - Wind Direction Wind Direction (WDIR): NW ( 310 deg true )
5-day plot - Wind Speed Wind Speed (WSPD): 12.0 kts
5-day plot - Atmospheric Pressure Atmospheric Pressure (PRES):29.85 in
5-day plot - Air Temperature Air Temperature (ATMP): 56.8 °F
5-day plot - Dew Point Dew Point (DEWP): 35.4 °F
5-day plot -  Wind Speed, Wind Gust and Atmospheric Pressure Combined plot of Wind Speed, Gust, and Air Pressure
Previous observations
TIME
(EDT)
5-day plot - Wind Direction
WDIR
 
5-day plot - Wind Speed
WSPD
kts
5-day plot - Wind Gust
GST
kts
5-day plot - Wave Height
WVHT
ft
5-day plot - Dominant Wave Period
DPD
sec
5-day plot - Average Wave Period
APD
sec
5-day plot - Mean Wave Direction
MWD
 
5-day plot - Atmospheric Pressure
PRES
in
5-day plot - Pressure Tendency
PTDY
in
5-day plot - Air Temperature
ATMP
°F
5-day plot - Water Temperature
WTMP
°F
5-day plot - Dew Point
DEWP
°F
5-day plot - Salinity
SAL
psu
5-day plot - Visibility
VIS
nmi
5-day plot - Tide (above MLLW)
TIDE
ft
2024-04-14 12:30 pmWNW 9.9-----29.85- 57.9- 35.8---
2024-04-14 12:15 pm NW 8.9-----29.88- 58.5- 33.3---
2024-04-14 12:00 pm NW 8.0-----29.88-0.03 58.3- 33.6---
2024-04-14 11:45 amNNW 8.0-----29.88- 59.7- 33.6---
2024-04-14 11:30 amNNW 8.0-----29.88- 59.0- 33.6---
2024-04-14 11:15 am NW 8.9-----29.88- 57.7- 33.3---
2024-04-14 11:00 amNNW 8.0-----29.88+0.00 58.8- 34.2---
2024-04-14 10:45 amNNW 8.0-----29.88- 56.8- 34.2---
2024-04-14 10:30 amNNW 7.0-----29.88- 57.0- 33.8---
2024-04-14 10:15 amNNW 7.0-----29.88- 56.8- 33.6---
2024-04-14 10:00 amNNW 8.0-----29.88+0.00 56.1- 33.6---
2024-04-14 09:45 amNNW 8.0-----29.91- 55.4- 34.2---
2024-04-14 09:30 amNNW 8.0-----29.91- 55.0- 33.8---
2024-04-14 09:15 amNNW 8.9-----29.91- 53.6- 33.4---
2024-04-14 09:00 am N 8.9-----29.91+0.06 52.9- 34.0---
2024-04-14 08:45 amNNW 8.0-----29.91- 52.3- 34.3---
2024-04-14 08:30 amNNW 7.0-----29.88- 51.4- 34.5---
2024-04-14 08:15 amNNW 8.9-----29.88- 50.4- 34.5---
2024-04-14 08:00 amNNW 8.9-----29.88+0.06 49.3- 34.3---
2024-04-14 07:45 amNNW 8.0-----29.88- 47.7- 34.5---
2024-04-14 07:30 amNNW 7.0-----29.88- 46.8- 34.5---
2024-04-14 07:15 amNNW 6.0-----29.88- 46.4- 34.2---
2024-04-14 07:00 amNNW 6.0-----29.88+0.09 46.0- 34.2---
2024-04-14 06:45 am NW 7.0-----29.85- 45.1- 34.2---
2024-04-14 06:30 amNNW 5.1-----29.85- 44.6- 34.0---
2024-04-14 06:15 amNNW 5.1-----29.85- 44.2- 34.0---
2024-04-14 06:00 amNNW 6.0-----29.85+0.09 44.6- 34.3---
2024-04-14 05:45 amNNW 6.0-----29.85- 44.8- 34.5---
2024-04-14 05:30 amNNW 6.0-----29.83- 44.8- 34.9---
2024-04-14 05:15 am NW 7.0-----29.83- 44.6- 35.4---
2024-04-14 05:00 amNNW 5.1-----29.83+0.06 44.4- 35.2---
2024-04-14 04:45 amNNW 5.1-----29.83- 44.4- 35.2---
2024-04-14 04:30 am NW 5.1-----29.83- 45.0- 35.4---
2024-04-14 04:15 am NW 6.0-----29.80- 45.1- 35.6---
2024-04-14 04:00 am NW 6.0-----29.80+0.06 45.1- 36.3---
2024-04-14 03:45 am NW 6.0-----29.80- 45.5- 36.3---
2024-04-14 03:30 amNNW 7.0-----29.77- 45.7- 36.1---
2024-04-14 03:15 amNNW 7.0-----29.77- 45.9- 36.3---
2024-04-14 03:00 amNNW 7.0-----29.77+0.03 46.0- 35.8---
2024-04-14 02:45 amNNW 6.0-----29.77- 46.2- 36.0---
2024-04-14 02:30 amNNW 7.0-----29.77- 46.0- 36.1---
2024-04-14 02:15 amNNW 6.0-----29.77- 46.4- 36.1---
2024-04-14 02:00 amNNW 7.0-----29.77+0.06 46.4- 36.1---
2024-04-14 01:45 amNNW 7.0-----29.77- 46.4- 36.1---
2024-04-14 01:30 amNNW 7.0-----29.77- 46.4- 36.1---
2024-04-14 01:15 amNNW 7.0-----29.74- 46.4- 36.1---
2024-04-14 01:00 amNNW 8.0-----29.74+0.03 46.6- 36.3---
2024-04-14 12:45 amNNW 9.9-----29.74- 46.8- 36.5---
2024-04-14 12:30 amNNW 9.9-----29.74- 46.9- 36.7---
2024-04-14 12:15 amNNW 9.9-----29.74- 46.6- 37.0---
2024-04-14 12:00 amNNW 9.9-----29.74+0.06 46.6- 37.0---
2024-04-13 11:45 pmNNW 9.9-----29.74- 46.6- 37.4---
2024-04-13 11:30 pmNNW 9.9-----29.74- 46.6- 37.0---
2024-04-13 11:15 pmNNW 9.9-----29.74- 46.6- 37.0---
2024-04-13 11:00 pmNNW 9.9-----29.71+0.06 46.6- 37.0---
2024-04-13 10:45 pmNNW 11.1-----29.71- 46.6- 37.0---
2024-04-13 10:30 pmNNW 9.9-----29.71- 46.4- 36.9---
2024-04-13 10:15 pmNNW 9.9-----29.71- 46.8- 36.9---
2024-04-13 10:00 pm N 9.9-----29.71+0.12 46.9- 36.7---
2024-04-13 09:45 pm N 11.1-----29.71- 46.9- 36.7---
2024-04-13 09:30 pm N 9.9-----29.71- 46.9- 36.7---
2024-04-13 09:15 pm N 12.0-----29.68- 46.9- 36.7---
2024-04-13 09:00 pmNNW 9.9-----29.68+0.12 46.9- 36.7---
2024-04-13 08:45 pmNNW 9.9-----29.68- 46.9- 37.0---
2024-04-13 08:30 pmNNW 8.9-----29.68- 46.8- 37.2---
2024-04-13 08:15 pmNNW 9.9-----29.65- 46.6- 37.4---
2024-04-13 08:00 pmNNW 9.9-----29.65+0.12 46.4- 36.9---
2024-04-13 07:45 pmNNW 11.1-----29.62- 46.8- 36.9---
2024-04-13 07:30 pmNNW 9.9-----29.62- 47.3- 36.3---
2024-04-13 07:15 pm N 11.1-----29.62- 47.7- 35.8---
2024-04-13 07:00 pmNNW 11.1-----29.59+0.09 48.4- 35.6---
2024-04-13 06:45 pm N 12.0-----29.59- 49.1- 33.3---
2024-04-13 06:30 pm N 11.1-----29.59- 48.7- 33.8---
2024-04-13 06:15 pm N 15.0-----29.56- 49.8- 34.0---
2024-04-13 06:00 pm N 12.0-----29.56+0.06 50.4- 34.9---
2024-04-13 05:45 pm N 11.1-----29.56- 50.5- 36.0---
2024-04-13 05:30 pm N 13.0-----29.56- 50.7- 36.7---
2024-04-13 05:15 pm N 12.0-----29.53- 50.4- 36.7---
2024-04-13 05:00 pmNNW 13.0-----29.53+0.03 52.3- 35.4---
2024-04-13 04:45 pm N 11.1-----29.53- 53.1- 35.1---
2024-04-13 04:30 pm N 11.1-----29.50- 53.6- 36.5---
2024-04-13 04:15 pm N 11.1-----29.50- 53.8- 36.3---
2024-04-13 04:00 pm N 13.0-----29.50+0.03 52.3- 34.9---
2024-04-13 03:45 pmNNW 9.9-----29.50- 52.9- 34.9---
2024-04-13 03:30 pm N 8.0-----29.50- 52.7- 35.2---
2024-04-13 03:15 pm N 9.9-----29.50- 52.3- 34.9---
2024-04-13 03:00 pm N 7.0-----29.50+0.03 55.0- 35.4---
2024-04-13 02:45 pmNNW 8.9-----29.50- 54.5- 36.0---
2024-04-13 02:30 pm N 8.9-----29.50- 54.5- 35.4---
2024-04-13 02:15 pm N 8.0-----29.50- 53.4- 36.5---
2024-04-13 02:00 pmNNE 5.1-----29.50+0.00 51.3- 37.2---